Weather Service Report


511 
ASUS42 KCAE 240810
RWRCAE
REGIONAL WEATHER ROUNDUP
NATIONAL WEATHER SERVICE COLUMBIA SC
400 AM EDT FRI MAR 24 2017

NOTE: "FAIR" INDICATES FEW OR NO CLOUDS BELOW 12,000 FEET WITH NO
SIGNIFICANT WEATHER AND/OR OBSTRUCTIONS TO VISIBILITY.

NOT ALL STATIONS ARE QUALITY CONTROLLED BY THE NATIONAL 
WEATHER SERVICE. USE DATA WITH CAUTION...ESPECIALLY 
DEWPOINT OBSERVATIONS.

SCZ001>056-GAZ040-063>065-077-240900-
...UPSTATE SOUTH CAROLINA...
  
CITY           SKY/WX    TMP DP  RH WIND       PRES   REMARKS
ANDERSON       CLOUDY    52  32  46 SE6       30.47S                  
LIBERTY        CLOUDY    52  31  44 CALM      30.46S                  
SPARTANBURG    CLOUDY    46  28  49 SE3       30.47F                  
CLEMSON        CLOUDY    55  32  41 CALM      30.48S                  
GREENVILLE     CLOUDY    52  31  44 S8        30.47F                  
GREENWOOD      CLOUDY    48  33  56 SE3       30.49F                  
GREER          CLOUDY    49  31  49 S6        30.46F                  
ROCK HILL      PTCLDY    44  32  62 S3        30.49F                  
CHESTER        CLOUDY    43  32  65 S3        30.50S                  
LAURENS        CLOUDY    48  32  53 S5        30.48F                  


...CENTRAL SOUTH CAROLINA...
  
CITY           SKY/WX    TMP DP  RH WIND       PRES   REMARKS
COLUMBIA APT   CLOUDY    49  36  61 E6        30.49S                  
COLUMBIA OWENS CLOUDY    49  34  56 CALM      30.50F                  
MCENTIRE ANGB  MOCLDY    44  36  73 E5        30.48F                  
ORANGEBURG     PTCLDY    46  38  73 NE5       30.48S                  
SUMTER SHAW    PTCLDY    41  35  80 NE6       30.47F                  
NEWBERRY       PTSUNNY   43  34  70 SE3       30.51F                  
AIKEN          CLOUDY    46  36  66 E3        30.50S                  
BARNWELL       CLOUDY    48  39  71 CALM      30.47F                  
MANNING        FAIR      37  34  87 NE3       30.49S                  
CAMDEN         CLOUDY    39  34  81 CALM      30.50F                  
LANCASTER      CLOUDY    43  34  70 CALM      30.50F                  
WINNSBORO      PTSUNNY   45  34  65 E3        30.49S                  


...EASTERN AND COASTAL SOUTH CAROLINA...
  
CITY           SKY/WX    TMP DP  RH WIND       PRES   REMARKS
MYRTLE BEACH   CLEAR     45  39  81 N7        30.50S                  
N MYRTLE BCH   PTCLDY    41  38  89 N6        30.50R                  
CONWAY         FAIR      36  34  93 CALM      30.50S                  
MARION         FAIR      37  32  81 NE3       30.51S                  
HARTSVILLE     FAIR      37  32  81 E5        30.50S WCI  34          
FLORENCE       PTCLDY    39  34  82 NE6       30.51S WCI  35          
DARLINGTON     PTCLDY    38  35  89 NE3       30.52S                  
CHARLESTON APT PTCLDY    48  44  86 NE7       30.45F                  
MOUNT PLEASANT LGT RAIN  46  45  93 CALM      30.46S                  
WALTERBORO     SUNNY     46  41  81 NE3       30.47S                  
BEAUFORT       MOCLDY    48  46  93 N6        30.44F                  


...EASTERN GEORGIA...
  
CITY           SKY/WX    TMP DP  RH WIND       PRES   REMARKS
AUGUSTA BUSH F CLOUDY    50  37  61 E5        30.47S                  
AUGUSTA DANIEL CLOUDY    52  33  48 E6        30.47S                  
THOMSON        CLOUDY    51  37  58 S3        30.51S                  
WASHINGTON     FAIR      55  43  62 SE5       30.45F                  
CLAXTON        FAIR     N/A N/A N/A N3        30.44S                  
SYLVANIA       SUNNY    N/A N/A N/A E6        30.46R                  
STATESBORO     CLEAR     49  44  81 CALM      30.45S                  
SAVANNAH       PTCLDY    48  42  80 N5        30.44S                  


...SOUTHERN NORTH CAROLINA...
  
CITY           SKY/WX    TMP DP  RH WIND       PRES   REMARKS
CHARLOTTE      PTCLDY    43  31  62 S7        30.49F                  
MONROE         CLEAR     40  31  70 CALM      30.48F                  
WADESBORO      SUNNY     36  31  83 CALM      30.51F                  
ROCKINGHAM     MOSUNNY   38  33  84 E3        30.51F                  
RUTHERFORDTON  CLOUDY    41  33  73 CALM      30.48F                  
ASHEVILLE      CLOUDY    46  24  42 SE5       30.44F                  

$$
  

Return to Home page


Western Regional Climate Center, wrcc@dri.edu